Weather History for K2DP - January, 2014

Change the Weather History Date:

Sunday, January 5, 2014

  Actual Average (KMQI) Record (KMQI)
Temperature  
Mean Temperature 56 °F -  
Max Temperature 67 °F 50 °F 71 °F (2005)
Min Temperature 45 °F 37 °F 24 °F (1970)
Degree Days  
Heating Degree Days 9    
Growing Degree Days 6 (Base 50)    
Moisture  
Dew Point 54 °F    
Average Humidity 85    
Maximum Humidity 100    
Minimum Humidity 68    
Precipitation  
Precipitation 0.00 in - - ()
Sea Level Pressure  
Sea Level Pressure 30.07 in    
Wind  
Wind Speed 10 mph (SSE)    
Max Wind Speed 17 mph    
Max Gust Speed 26 mph    
Visibility 11 miles    
Events Rain    
Averages and records for this station are not official NWS values.
T = Trace of Precipitation, MM = Missing Value Source: NWS Daily Summary

Daily Weather History Graph

Daily Weather History Graph

Search for Another Location

Airport or City:

Trip Planner

Search our weather history database for the weather conditions in past years. The results will help you decide how hot, cold, wet, or windy it might be!

Date:

Astronomy

Jan. 05, 2014 Rise Set
Actual Time 7:13 AM EST 5:04 PM EST
Civil Twilight 6:45 AM EST 5:32 PM EST
Nautical Twilight 6:13 AM EST 6:04 PM EST
Astronomical Twilight 5:42 AM EST 6:35 PM EST
Moon 10:04 AM EST (1/5) 10:18 PM EST (1/5)
Length of Visible Light 10h 47m
Length of Day
9h 50m
Waxing Crescent, 24% of the Moon is Illuminated
Jan 5
Waxing Crescent
Jan 7
First Quarter
Jan 15
Full
Jan 24
Last Quarter
Jan 30
New

Hourly Weather History & Observations

Time (EST) Temp. Windchill Dew Point Humidity Pressure Visibility Wind Dir Wind Speed Gust Speed Precip Events Conditions
12:56 AM 45.5 °F 42.5 °F 42.4 °F 89% 30.29 in 12.0 mi ESE 5.8 mph - N/A   Mostly Cloudy
1:56 AM 45.1 °F 42.0 °F 42.4 °F 90% 30.28 in 12.0 mi SE 5.8 mph - N/A   Scattered Clouds
2:56 AM 53.4 °F - 46.9 °F 79% 30.28 in 12.0 mi SE 8.1 mph - N/A   Mostly Cloudy
3:56 AM 54.9 °F - 47.3 °F 76% 30.26 in 12.0 mi SE 9.2 mph - N/A   Mostly Cloudy
4:56 AM 56.3 °F - 49.5 °F 78% 30.25 in 12.0 mi SSE 11.5 mph - N/A   Mostly Cloudy
5:56 AM 55.0 °F - 50.0 °F 83% 30.25 in 12.0 mi SE 8.1 mph - N/A   Mostly Cloudy
6:56 AM 54.7 °F - 50.0 °F 84% 30.26 in 12.0 mi SE 10.4 mph - N/A   Mostly Cloudy
7:56 AM 55.9 °F - 51.6 °F 85% 30.25 in 12.0 mi SE 11.5 mph 17.3 mph N/A   Mostly Cloudy
8:56 AM 58.5 °F - 51.6 °F 78% 30.22 in 12.0 mi SE 11.5 mph - N/A   Mostly Cloudy
9:56 AM 59.4 °F - 52.2 °F 77% 30.20 in 12.0 mi SE 6.9 mph - N/A   Clear
10:56 AM 62.6 °F - 54.0 °F 73% 30.20 in 12.0 mi SSE 8.1 mph - N/A   Mostly Cloudy
11:56 AM 63.1 °F - 54.1 °F 72% 30.16 in 12.0 mi SSE 12.7 mph - N/A   Mostly Cloudy
12:56 PM 66.6 °F - 55.6 °F 68% 30.11 in 12.0 mi SSE 15.0 mph 19.6 mph N/A   Partly Cloudy
1:56 PM 67.8 °F - 57.0 °F 68% 30.08 in 12.0 mi SSE 12.7 mph 19.6 mph N/A   Scattered Clouds
2:56 PM 65.3 °F - 57.2 °F 75% 30.06 in 12.0 mi SSE 13.8 mph 21.9 mph N/A   Mostly Cloudy
3:31 PM 64.4 °F - 57.2 °F 77% 30.06 in 12.0 mi SSE 15.0 mph 21.9 mph N/A   Mostly Cloudy
3:56 PM 63.0 °F - 57.4 °F 82% 30.05 in 12.0 mi SSE 13.8 mph 19.6 mph N/A   Mostly Cloudy
4:30 PM 62.6 °F - 57.2 °F 82% 30.04 in 12.0 mi SSE 12.7 mph 21.9 mph N/A   Mostly Cloudy
4:56 PM 62.6 °F - 57.7 °F 84% 30.04 in 12.0 mi SSE 11.5 mph - N/A   Mostly Cloudy
5:02 PM 62.6 °F - 57.2 °F 82% 30.04 in 12.0 mi South 11.5 mph - N/A Rain Light Rain Showers
5:25 PM 59.0 °F - 55.4 °F 88% 30.03 in 12.0 mi South 11.5 mph - N/A   Mostly Cloudy
5:56 PM 61.3 °F - 58.6 °F 91% 30.01 in 12.0 mi South 12.7 mph 19.6 mph N/A   Mostly Cloudy
6:03 PM 62.6 °F - 59.0 °F 88% 30.01 in 12.0 mi SSE 17.3 mph 26.5 mph N/A Rain Light Rain Showers
6:45 PM 60.8 °F - 57.2 °F 88% 30.00 in 11.0 mi South 11.5 mph 19.6 mph N/A   Mostly Cloudy
6:56 PM 57.4 °F - 55.0 °F 92% 30.00 in 10.0 mi South 12.7 mph - N/A   Mostly Cloudy
7:56 PM 56.8 °F - 55.2 °F 94% 29.98 in 10.0 mi South 11.5 mph - N/A   Mostly Cloudy
8:56 PM 56.1 °F - 55.2 °F 97% 29.97 in 8.0 mi SSE 9.2 mph - N/A   Mostly Cloudy
9:56 PM 57.9 °F - 57.2 °F 97% 29.93 in 9.0 mi South 11.5 mph - N/A   Scattered Clouds
10:24 PM 57.2 °F - 55.4 °F 94% 29.92 in 8.0 mi South 9.2 mph - N/A   Mostly Cloudy
10:36 PM 57.2 °F - 55.4 °F 94% 29.91 in 9.0 mi South 8.1 mph - N/A   Scattered Clouds
10:56 PM 56.1 °F - 55.0 °F 96% 29.89 in 9.0 mi South 10.4 mph - N/A   Partly Cloudy
11:07 PM 55.4 °F - 53.6 °F 94% 29.88 in 6.0 mi South 11.5 mph - N/A   Mostly Cloudy
11:25 PM 55.4 °F - 55.4 °F 100% 29.88 in 6.0 mi South 8.1 mph - N/A   Mostly Cloudy
11:37 PM 55.4 °F - 55.4 °F 100% 29.87 in 7.0 mi South 6.9 mph - N/A   Mostly Cloudy
11:56 PM 56.8 °F - 55.9 °F 97% 29.86 in 6.0 mi South 6.9 mph - N/A   Mostly Cloudy